Riverton, WY

5:20 AM MST on February 26, 2017 (GMT -0700)
Thermopolis

Weather History for KTBX - October, 2012

Change the Weather History Date:

Monday, October 15, 2012

  Actual Average (KRIW) Record (KRIW)
Temperature  
Mean Temperature 52 °F -  
Max Temperature 59 °F 59 °F 74 °F (2010)
Min Temperature 44 °F 26 °F 17 °F (2001)
Degree Days  
Heating Degree Days 14    
Growing Degree Days 2 (Base 50)    
Moisture  
Dew Point 28 °F    
Average Humidity 41    
Maximum Humidity 57    
Minimum Humidity 29    
Precipitation  
Precipitation 0.00 in - - ()
Sea Level Pressure  
Sea Level Pressure 30.13 in    
Wind  
Wind Speed 13 mph ()    
Max Wind Speed 39 mph    
Max Gust Speed 50 mph    
Visibility 10.0 miles    
Events      
Averages and records for this station are not official NWS values.
T = Trace of Precipitation, MM = Missing Value Source: Averaged Metar Reports

Daily Weather History Graph

Daily Weather History Graph

Search for Another Location

Airport or City:

Trip Planner

Search our weather history database for the weather conditions in past years. The results will help you decide how hot, cold, wet, or windy it might be!

Date:

Astronomy

Oct. 15, 2012 Rise Set
Actual Time 7:27 AM MDT 6:28 PM MDT
Civil Twilight 6:58 AM MDT 6:57 PM MDT
Nautical Twilight 6:25 AM MDT 7:30 PM MDT
Astronomical Twilight 5:52 AM MDT 8:03 PM MDT
Moon 7:43 AM MDT (10/15) 6:28 PM MDT (10/15)
Length of Visible Light 11h 58m
Length of Day
11h 01m
New Moon, 0% of the Moon is Illuminated
Oct 15
New Moon
Oct 21
First Quarter
Oct 29
Full
Nov 6
Last Quarter
Nov 13
New

Hourly Weather History & Observations

Time (MDT) Temp. Windchill Dew Point Humidity Pressure Visibility Wind Dir Wind Speed Gust Speed Precip Events Conditions
12:15 AM 50.0 °F - 21.2 °F 32% 30.24 in 10.0 mi South 8.1 mph - N/A   Clear
12:35 AM 50.0 °F - 23.0 °F 35% 30.24 in 10.0 mi SSE 8.1 mph - N/A   Clear
12:55 AM 50.0 °F - 23.0 °F 35% 30.23 in 10.0 mi SSW 12.7 mph - N/A   Clear
1:15 AM 50.0 °F - 23.0 °F 35% 30.22 in 10.0 mi SSW 13.8 mph - N/A   Clear
1:35 AM 50.0 °F - 23.0 °F 35% 30.22 in 10.0 mi South 13.8 mph - N/A   Clear
1:55 AM 50.0 °F - 24.8 °F 37% 30.22 in 10.0 mi SSW 13.8 mph - N/A   Clear
2:15 AM 50.0 °F - 23.0 °F 35% 30.20 in 10.0 mi SSW 18.4 mph 21.9 mph N/A   Clear
2:35 AM 50.0 °F - 23.0 °F 35% 30.21 in 10.0 mi SSW 18.4 mph 27.6 mph N/A   Clear
2:55 AM 50.0 °F - 26.6 °F 40% 30.20 in 10.0 mi SSW 21.9 mph 28.8 mph N/A   Clear
3:15 AM 50.0 °F - 28.4 °F 43% 30.19 in 10.0 mi SSW 15.0 mph 20.7 mph N/A   Clear
3:35 AM 50.0 °F - 28.4 °F 43% 30.18 in 10.0 mi South 19.6 mph 26.5 mph N/A   Scattered Clouds
3:55 AM 50.0 °F - 28.4 °F 43% 30.17 in 10.0 mi SSW 23.0 mph 29.9 mph N/A   Clear
4:15 AM 50.0 °F - 26.6 °F 40% 30.17 in 10.0 mi South 11.5 mph - N/A   Clear
4:35 AM 51.8 °F - 24.8 °F 35% 30.16 in 10.0 mi South 20.7 mph 26.5 mph N/A   Clear
4:55 AM 50.0 °F - 26.6 °F 40% 30.17 in 10.0 mi South 11.5 mph - N/A   Scattered Clouds
5:15 AM 51.8 °F - 26.6 °F 38% 30.16 in 10.0 mi SW 25.3 mph 33.4 mph N/A   Scattered Clouds
5:35 AM 50.0 °F - 26.6 °F 40% 30.16 in 10.0 mi SSE 8.1 mph 26.5 mph N/A   Clear
5:55 AM 48.2 °F - 28.4 °F 46% 30.15 in 10.0 mi South 12.7 mph 17.3 mph N/A   Clear
6:15 AM 48.2 °F - 28.4 °F 46% 30.16 in 10.0 mi SW 13.8 mph - N/A   Clear
6:35 AM 50.0 °F - 28.4 °F 43% 30.16 in 10.0 mi SW 10.4 mph - N/A   Clear
6:55 AM 50.0 °F - 28.4 °F 43% 30.16 in 10.0 mi SW 9.2 mph - N/A   Clear
7:15 AM 50.0 °F - 28.4 °F 43% 30.16 in 10.0 mi WSW 12.7 mph 18.4 mph N/A   Clear
7:35 AM 50.0 °F - 28.4 °F 43% 30.15 in 10.0 mi SW 12.7 mph 21.9 mph N/A   Clear
7:55 AM 48.2 °F - 28.4 °F 46% 30.15 in 10.0 mi SSE 6.9 mph - N/A   Clear
8:15 AM 46.4 °F 44.3 °F 28.4 °F 50% 30.15 in 10.0 mi SE 4.6 mph - N/A   Clear
8:35 AM 46.4 °F 40.4 °F 28.4 °F 50% 30.15 in 10.0 mi South 13.8 mph 17.3 mph N/A   Clear
8:55 AM 50.0 °F - 28.4 °F 43% 30.14 in 10.0 mi South 8.1 mph 21.9 mph N/A   Clear
9:15 AM 46.4 °F 42.9 °F 28.4 °F 50% 30.15 in 10.0 mi South 6.9 mph - N/A   Clear
9:35 AM 44.6 °F 38.8 °F 30.2 °F 57% 30.15 in 10.0 mi SE 11.5 mph - N/A   Clear
9:55 AM 44.6 °F 39.2 °F 30.2 °F 57% 30.14 in 10.0 mi SSE 10.4 mph 21.9 mph N/A   Clear
10:15 AM 51.8 °F - 26.6 °F 38% 30.14 in 10.0 mi SSW 21.9 mph 32.2 mph N/A   Clear
10:35 AM 50.0 °F - 26.6 °F 40% 30.15 in 10.0 mi SW 24.2 mph 35.7 mph N/A   Clear
10:55 AM 51.8 °F - 26.6 °F 38% 30.14 in 10.0 mi SW 25.3 mph 33.4 mph N/A   Clear
11:15 AM 50.0 °F - 26.6 °F 40% 30.13 in 10.0 mi SSW 20.7 mph 31.1 mph N/A   Clear
11:35 AM 51.8 °F - 26.6 °F 38% 30.12 in 10.0 mi SSW 27.6 mph 35.7 mph N/A   Clear
12:15 PM 55.4 °F - 26.6 °F 33% 30.12 in 10.0 mi SW 28.8 mph 40.3 mph N/A   Clear
12:35 PM 55.4 °F - 26.6 °F 33% 30.11 in 10.0 mi SW 23.0 mph 33.4 mph N/A   Clear
12:55 PM 59.0 °F - 26.6 °F 29% 30.10 in 10.0 mi SW 17.3 mph 26.5 mph N/A   Clear
1:15 PM 55.4 °F - 28.4 °F 36% 30.09 in 10.0 mi SSE 9.2 mph 25.3 mph N/A   Scattered Clouds
1:35 PM 50.0 °F - 28.4 °F 43% 30.08 in 10.0 mi SE 8.1 mph - N/A   Mostly Cloudy
1:55 PM 51.8 °F - 28.4 °F 41% 30.08 in 10.0 mi SE 6.9 mph - N/A   Overcast
2:15 PM 51.8 °F - 28.4 °F 41% 30.08 in 10.0 mi South 10.4 mph - N/A   Overcast
2:35 PM 53.6 °F - 28.4 °F 38% 30.08 in 10.0 mi South 12.7 mph - N/A   Overcast
2:55 PM 53.6 °F - 28.4 °F 38% 30.07 in 10.0 mi South 17.3 mph 25.3 mph N/A   Overcast
3:15 PM 53.6 °F - 28.4 °F 38% 30.07 in 10.0 mi South 18.4 mph 36.8 mph N/A   Overcast
3:35 PM 53.6 °F - 30.2 °F 41% 30.05 in 10.0 mi SW 39.1 mph 48.3 mph N/A   Mostly Cloudy
3:55 PM 53.6 °F - 32.0 °F 44% 30.06 in 10.0 mi SW 35.7 mph 49.5 mph N/A   Scattered Clouds
4:15 PM 53.6 °F - 32.0 °F 44% 30.06 in 10.0 mi SW 31.1 mph 39.1 mph N/A   Clear
4:35 PM 53.6 °F - 32.0 °F 44% 30.06 in 10.0 mi SW 31.1 mph 39.1 mph N/A   Scattered Clouds
4:55 PM 53.6 °F - 32.0 °F 44% 30.07 in 10.0 mi WSW 32.2 mph 41.4 mph N/A   Scattered Clouds
5:15 PM 53.6 °F - 32.0 °F 44% 30.07 in 10.0 mi WSW 26.5 mph 42.6 mph N/A   Mostly Cloudy
5:35 PM 53.6 °F - 32.0 °F 44% 30.07 in 10.0 mi WSW 29.9 mph 38.0 mph N/A   Scattered Clouds
5:55 PM 53.6 °F - 30.2 °F 41% 30.08 in 10.0 mi WSW 17.3 mph 32.2 mph N/A   Clear
6:15 PM 51.8 °F - 32.0 °F 47% 30.08 in 10.0 mi WSW 21.9 mph - N/A   Clear
6:35 PM 50.0 °F - 30.2 °F 47% 30.09 in 10.0 mi West 17.3 mph 27.6 mph N/A   Clear
6:55 PM 50.0 °F - 26.6 °F 40% 30.10 in 10.0 mi NW 13.8 mph - N/A   Clear
7:15 PM 50.0 °F - 23.0 °F 35% 30.10 in 10.0 mi NNW 6.9 mph - N/A   Clear
7:35 PM 51.8 °F - 24.8 °F 35% 30.10 in 10.0 mi North 3.5 mph - N/A   Scattered Clouds
7:55 PM 51.8 °F - 26.6 °F 38% 30.10 in 10.0 mi NNW 3.5 mph - N/A   Mostly Cloudy
8:15 PM 51.8 °F - 28.4 °F 41% 30.10 in 10.0 mi North 8.1 mph - N/A   Scattered Clouds
8:35 PM 51.8 °F - 28.4 °F 41% 30.10 in 10.0 mi North 5.8 mph - N/A   Scattered Clouds
8:55 PM 51.8 °F - 28.4 °F 41% 30.09 in 10.0 mi Calm Calm - N/A   Clear
9:15 PM 51.8 °F - 28.4 °F 41% 30.10 in 10.0 mi Calm Calm - N/A   Scattered Clouds
9:35 PM 50.0 °F - 28.4 °F 43% 30.08 in 10.0 mi Calm Calm - N/A   Mostly Cloudy
9:55 PM 50.0 °F - 28.4 °F 43% 30.10 in 10.0 mi Calm Calm - N/A   Mostly Cloudy
10:15 PM 51.8 °F - 28.4 °F 41% 30.10 in 10.0 mi Calm Calm - N/A   Scattered Clouds
10:35 PM 50.0 °F - 28.4 °F 43% 30.10 in 10.0 mi ESE 3.5 mph - N/A   Scattered Clouds
10:55 PM 50.0 °F - 28.4 °F 43% 30.09 in 10.0 mi SSE 5.8 mph - N/A   Clear
11:15 PM 48.2 °F - 30.2 °F 50% 30.08 in 10.0 mi SW 10.4 mph - N/A   Clear
11:35 PM 48.2 °F - 32.0 °F 54% 30.08 in 10.0 mi SW 17.3 mph 23.0 mph N/A   Clear
11:55 PM 50.0 °F - 32.0 °F 50% 30.07 in 10.0 mi SW 20.7 mph 26.5 mph N/A   Clear